Back to catalog

STARLINK-36275

AliveCommunicationsVLEO
NORAD 68702·PAYLOAD·🇺🇸 United States

Launched Apr 14, 2026 from Cape Canaveral Space Force Station

Loading…

Next Passes (next 24 hours)

TLE

FreshSource: CelesTrak SupGP

Epoch: Sep 14, 2026, 14:53 UTC

1 68702C 26081D   26257.62062500 -.00029343  00000+0 -86706-3 0  2572
2 68702  53.1569 233.4910 0001241  95.2385 205.9908 15.34401173    19

Track STARLINK-36275 in real time with AllMySat

Download on the App Store